Terminal Aerodrome Forecast
Issued by NWS

Current Version | Previous Version | Graphics & Text | Print | Product List | Glossary On
Versions: 1 2 3 4 5 6 7 8 9 10 11 12 13 14 15 16 17 18
000
FTUS41 KPBZ 040545
TAFMGW
TAF
KMGW 040545Z 0406/0506 VRB03KT P6SM OVC035
     FM041600 11004KT P6SM BKN090
     FM050300 14004KT 6SM -SHRA OVC035=

USA.gov is the U.S. government's official web portal to all federal, state and local government web resources and services.